FW5313 Weather Reports


time (UTC)temp
C
wind
direction
speed
KPH
gust
KPH
rain 1hr
cm
rain 24hr
cm
rain mn
cm
humidity
%
barometer
mb
20260904065044 15 0 0.0 0.0 0.00 0.13 0.00 95 1010.8
20260904064559 15 0 0.0 0.0 0.00 0.13 0.00 95 1010.8
20260904064044 15 0 0.0 0.0 0.00 0.13 0.00 95 1011.0
20260904063545 15 0 0.0 0.0 0.00 0.13 0.00 94 1010.9
20260904063101 15 0 0.0 0.0 0.00 0.13 0.00 94 1010.9
20260904062545 15 0 0.0 0.0 0.00 0.13 0.00 93 1011.1
20260904062044 15 0 0.0 0.0 0.00 0.13 0.00 93 1011.2
20260904061604 15 0 0.0 0.0 0.00 0.13 0.00 94 1011.1
20260904061045 15 0 0.0 0.0 0.00 0.13 0.00 94 1011.1
20260904060547 15 0 0.0 0.0 0.00 0.13 0.00 94 1011.3
20260904060106 15 0 0.0 0.0 0.00 0.13 0.00 94 1011.4
20260904055544 15 0 0.0 0.0 0.00 0.53 0.00 93 1011.3
20260904055048 15 0 0.0 0.0 0.00 0.53 0.00 93 1011.4
20260904054607 15 0 0.0 1.6 0.00 0.53 0.00 94 1011.3
20260904054045 15 0 0.0 1.6 0.00 0.53 0.00 94 1011.3
20260904053544 15 0 0.0 1.6 0.00 0.53 0.00 94 1011.4
20260904053104 15 0 0.0 0.0 0.00 0.53 0.00 95 1011.5
20260904052545 15 0 0.0 0.0 0.00 0.53 0.00 95 1011.5
20260904052045 15 0 0.0 1.6 0.00 0.53 0.00 94 1011.5
20260904051558 15 0 0.0 1.6 0.00 0.53 0.00 94 1011.6
20260904051044 15 0 0.0 0.0 0.00 0.53 0.00 93 1011.6
20260904050547 15 0 0.0 0.0 0.00 0.53 0.00 95 1011.6
20260904050105 15 0 0.0 0.0 0.00 0.53 0.00 94 1011.6
20260904045541 15 0 0.0 0.0 0.00 0.53 0.00 93 1011.6
20260904045047 15 0 0.0 0.0 0.00 0.53 0.00 94 1011.6
20260904044603 16 0 0.0 0.0 0.00 0.53 0.00 94 1011.7
20260904044043 15 0 0.0 1.6 0.00 0.53 0.00 94 1011.8
20260904043544 15 0 0.0 1.6 0.00 0.53 0.00 94 1011.8
20260904043112 15 0 0.0 0.0 0.00 0.53 0.00 94 1011.9
20260904042545 15 0 0.0 0.0 0.00 0.53 0.00 95 1011.9
20260904042046 15 0 0.0 0.0 0.00 0.53 0.00 95 1012.1
20260904041554 15 0 0.0 0.0 0.00 0.53 0.00 94 1012.1
20260904041044 15 0 0.0 0.0 0.00 0.53 0.00 94 1012.1
20260904040544 15 0 0.0 0.0 0.00 0.53 0.00 95 1012.1
20260904040058 16 0 0.0 0.0 0.00 0.53 0.00 95 1012.1
20260904035543 15 0 0.0 0.0 0.00 0.53 0.53 95 1012.1
20260904035043 15 0 0.0 0.0 0.00 0.53 0.53 95 1012.2
20260904034558 15 0 0.0 0.0 0.00 0.53 0.53 95 1012.1
20260904034044 16 0 0.0 0.0 0.00 0.53 0.53 96 1012.2
20260904033545 16 0 0.0 1.6 0.00 0.53 0.53 95 1012.1
20260904033057 16 0 0.0 1.6 0.00 0.53 0.53 95 1012.1
20260904032544 16 0 0.0 0.0 0.00 0.53 0.53 95 1012.1
20260904032044 16 0 0.0 0.0 0.00 0.53 0.53 95 1012.0
20260904031558 16 0 0.0 0.0 0.00 0.53 0.53 95 1012.1
20260904031044 16 0 0.0 0.0 0.00 0.53 0.53 95 1012.2
20260904030544 16 0 0.0 1.6 0.00 0.53 0.53 94 1012.2
20260904030100 16 0 0.0 1.6 0.00 0.53 0.53 94 1012.2
20260904025544 16 0 0.0 1.6 0.00 0.53 0.53 94 1012.2
20260904025041 16 0 0.0 1.6 0.00 0.53 0.53 93 1012.2
20260904024605 16 0 0.0 1.6 0.00 0.53 0.53 92 1012.2
20260904024045 16 0 0.0 1.6 0.00 0.53 0.53 93 1012.2
20260904023544 16 0 0.0 1.6 0.00 0.53 0.53 93 1012.3
20260904023058 16 95 0.0 1.6 0.00 0.53 0.53 93 1012.2
20260904022544 16 95 0.0 1.6 0.00 0.53 0.53 92 1012.3
20260904022044 16 0 0.0 3.2 0.00 0.53 0.53 92 1012.3
20260904021557 16 95 0.0 3.2 0.00 0.53 0.53 92 1012.3
20260904021044 16 95 1.6 3.2 0.00 0.53 0.53 91 1012.3
20260904020544 16 95 0.0 1.6 0.00 0.53 0.53 93 1012.3
20260904020101 16 0 0.0 0.0 0.00 0.53 0.53 94 1012.3
20260904015540 16 0 0.0 0.0 0.00 0.53 0.53 93 1012.4
20260904015044 16 0 0.0 0.0 0.00 0.53 0.53 94 1012.7
20260904014642 16 0 0.0 0.0 0.00 0.53 0.53 94 1012.5
20260904014045 16 0 0.0 0.0 0.00 0.53 0.53 93 1012.5
20260904013547 16 0 0.0 1.6 0.00 0.53 0.53 93 1012.5
20260904013059 16 0 0.0 1.6 0.00 0.53 0.53 92 1012.4
20260904012545 16 94 0.0 1.6 0.00 0.53 0.53 92 1012.3
20260904012044 16 0 0.0 1.6 0.00 0.53 0.53 92 1012.4
20260904011602 16 0 0.0 1.6 0.00 0.53 0.53 92 1012.3
20260904011049 16 94 0.0 3.2 0.00 0.53 0.53 92 1012.3
20260904010545 16 94 0.0 3.2 0.00 0.53 0.53 93 1012.3
20260904010100 16 0 0.0 3.2 0.00 0.53 0.53 94 1012.2
20260904005544 16 0 0.0 3.2 0.00 0.53 0.53 93 1012.2
20260904005046 16 0 0.0 3.2 0.00 0.53 0.53 94 1012.2
20260904004604 16 94 0.0 3.2 0.00 0.53 0.53 95 1012.1
20260904004044 16 98 0.0 1.6 0.00 0.53 0.53 95 1012.0
20260904003544 16 0 0.0 1.6 0.00 0.53 0.53 95 1012.1
20260904003100 16 0 0.0 1.6 0.00 0.53 0.53 96 1012.1
20260904002544 16 0 0.0 1.6 0.00 0.53 0.53 95 1012.0
20260904002044 16 0 0.0 1.6 0.00 0.53 0.53 96 1011.8
20260904001602 17 0 0.0 1.6 0.00 0.53 0.53 96 1011.6
20260904001044 17 0 0.0 1.6 0.00 0.53 0.53 96 1011.6
20260904000546 17 0 0.0 1.6 0.00 0.53 0.53 96 1011.6
20260904000140 17 98 0.0 0.0 0.00 0.53 0.53 96 1011.4
20260903235545 17 0 0.0 0.0 0.00 0.53 0.53 95 1011.6
20260903235044 17 0 0.0 0.0 0.00 0.53 0.53 95 1011.6
20260903234558 17 0 0.0 0.0 0.00 0.53 0.53 95 1011.4
20260903234045 17 0 0.0 1.6 0.00 0.53 0.53 95 1011.2
20260903233545 17 0 0.0 1.6 0.00 0.53 0.53 95 1011.2
20260903233057 17 0 0.0 0.0 0.00 0.53 0.53 95 1011.3
20260903232544 17 0 0.0 1.6 0.00 0.53 0.53 94 1011.3
20260903232048 18 0 0.0 1.6 0.00 0.53 0.53 94 1011.2
20260903231618 18 0 0.0 4.8 0.00 0.53 0.53 94 1011.2
20260903231044 18 0 0.0 4.8 0.00 0.53 0.53 93 1011.0
20260903230544 18 0 0.0 1.6 0.00 0.53 0.53 95 1011.1
20260903230105 18 0 0.0 1.6 0.00 0.53 0.53 95 1011.2
20260903225545 18 0 0.0 0.0 0.00 0.53 0.53 95 1011.3
20260903225044 18 0 0.0 0.0 0.00 0.53 0.53 95 1011.2
20260903224602 18 0 0.0 1.6 0.00 0.53 0.53 95 1011.3
20260903224044 18 0 0.0 1.6 0.00 0.53 0.53 95 1011.3
20260903223545 18 0 0.0 1.6 0.00 0.53 0.53 95 1011.3
20260903223053 18 0 0.0 1.6 0.00 0.53 0.53 95 1011.5
20260903222551 18 0 0.0 1.6 0.00 0.53 0.53 96 1011.4
20260903222045 18 0 0.0 1.6 0.00 0.53 0.53 95 1011.3
20260903221559 18 0 0.0 1.6 0.00 0.53 0.53 96 1011.3
20260903221044 18 354 0.0 1.6 0.00 0.53 0.53 96 1011.5
20260903220545 18 0 0.0 1.6 0.00 0.53 0.53 95 1011.5
20260903220112 18 0 0.0 1.6 0.00 0.53 0.53 95 1011.6
20260903215545 18 356 0.0 1.6 0.00 0.53 0.53 95 1011.6
20260903215046 18 0 0.0 1.6 0.00 0.53 0.53 95 1011.7
20260903214602 18 0 0.0 1.6 0.00 0.53 0.53 95 1011.5
20260903214045 18 0 0.0 1.6 0.00 0.53 0.53 94 1011.5
20260903213545 18 0 0.0 1.6 0.00 0.53 0.53 94 1011.5
20260903213057 18 0 0.0 1.6 0.00 0.53 0.53 94 1011.6
20260903212545 18 0 0.0 1.6 0.00 0.53 0.53 94 1011.7
20260903212045 18 0 0.0 1.6 0.00 0.53 0.53 94 1011.6
20260903211559 19 0 0.0 1.6 0.00 0.53 0.53 95 1011.7
20260903211044 19 0 0.0 1.6 0.00 0.53 0.53 95 1011.6
20260903210544 19 340 0.0 0.0 0.00 0.53 0.53 95 1011.7
20260903210055 19 0 0.0 1.6 0.00 0.53 0.53 94 1011.7
20260903205544 19 0 0.0 1.6 0.00 0.53 0.53 94 1011.6
20260903205045 19 0 0.0 0.0 0.00 0.53 0.53 94 1011.5
20260903204552 19 0 0.0 1.6 0.00 0.53 0.53 94 1011.5
20260903204044 19 0 0.0 1.6 0.00 0.53 0.53 94 1011.5
20260903203548 20 0 0.0 3.2 0.00 0.53 0.53 93 1011.4
20260903203057 20 0 0.0 3.2 0.00 0.53 0.53 93 1011.5
20260903202544 20 0 0.0 1.6 0.00 0.53 0.53 92 1011.5
20260903202045 20 0 0.0 1.6 0.00 0.53 0.53 92 1011.5
20260903201601 20 0 0.0 1.6 0.00 0.53 0.53 91 1011.5
20260903201044 21 0 0.0 0.0 0.00 0.53 0.53 90 1011.6
20260903200546 21 0 0.0 0.0 0.00 0.53 0.53 90 1011.6
20260903200055 22 0 0.0 0.0 0.00 0.53 0.53 89 1011.6
20260903195545 22 0 0.0 0.0 0.00 0.53 0.53 87 1011.6
20260903195045 23 0 0.0 0.0 0.00 0.53 0.53 86 1011.5
20260903194559 23 0 0.0 0.0 0.00 0.53 0.53 86 1011.6
20260903194044 23 0 0.0 1.6 0.00 0.53 0.53 85 1011.6
20260903193547 23 0 0.0 1.6 0.00 0.53 0.53 86 1011.7
20260903193057 23 0 0.0 1.6 0.00 0.53 0.53 87 1011.6
20260903192545 23 0 0.0 1.6 0.00 0.53 0.53 90 1011.7
20260903192047 23 0 0.0 1.6 0.00 0.53 0.53 87 1011.8
20260903191558 23 0 0.0 1.6 0.00 0.53 0.53 87 1011.7
20260903191044 23 0 0.0 4.8 0.00 0.53 0.53 89 1011.7
20260903190545 22 321 0.0 4.8 0.00 0.53 0.53 90 1011.9
20260903185545 21 0 0.0 0.0 0.00 0.53 0.53 89 1011.8
20260903185045 21 320 0.0 0.0 0.00 0.53 0.53 91 1011.8
20260903184602 21 320 0.0 0.0 0.00 0.53 0.53 91 1011.9
20260903184045 21 0 0.0 0.0 0.00 0.53 0.53 91 1011.9
20260903183544 21 0 0.0 1.6 0.00 0.53 0.53 90 1012.0
20260903183101 21 0 0.0 1.6 0.00 0.53 0.53 89 1012.0
20260903182545 21 0 0.0 1.6 0.00 0.53 0.53 90 1012.0
20260903182044 21 321 0.0 1.6 0.00 0.53 0.53 91 1012.1
20260903181558 21 320 0.0 1.6 0.00 0.53 0.53 88 1012.2
20260903181047 21 0 0.0 0.0 0.00 0.53 0.53 91 1012.2
20260903180544 21 0 0.0 0.0 0.00 0.53 0.53 90 1012.1
20260903180105 20 0 0.0 1.6 0.00 0.53 0.53 91 1012.2
20260903175544 20 323 0.0 1.6 0.00 0.53 0.53 89 1012.3
20260903175045 20 0 0.0 1.6 0.00 0.53 0.53 93 1012.3
20260903174558 20 0 0.0 3.2 0.00 0.53 0.53 93 1012.4
20260903174045 19 324 0.0 3.2 0.00 0.53 0.53 92 1012.4
20260903173544 19 314 0.0 3.2 0.00 0.53 0.53 93 1012.4
20260903173059 19 0 0.0 3.2 0.00 0.53 0.53 92 1012.4
20260903172545 19 314 0.0 1.6 0.00 0.53 0.53 91 1012.4
20260903172045 19 0 0.0 1.6 0.00 0.53 0.53 95 1012.6
20260903171607 18 311 0.0 3.2 0.00 0.53 0.53 92 1012.7
20260903171045 18 0 0.0 3.2 0.00 0.53 0.53 94 1012.7
20260903170545 18 307 0.0 3.2 0.00 0.53 0.53 92 1012.6
20260903170109 18 309 1.6 3.2 0.00 0.53 0.53 92 1012.7
20260903165545 18 309 0.0 3.2 0.00 0.53 0.53 95 1012.7
20260903165048 18 325 0.0 6.4 0.00 0.53 0.53 95 1012.7
20260903164604 17 320 0.0 6.4 0.00 0.53 0.53 96 1012.7
20260903164046 17 320 0.0 6.4 0.00 0.53 0.53 95 1012.7
20260903163544 17 328 0.0 4.8 0.00 0.53 0.53 95 1012.8
20260903163109 17 329 0.0 4.8 0.00 0.53 0.53 95 1012.9
20260903162544 17 0 0.0 1.6 0.00 0.53 0.53 96 1013.0
20260903162045 17 0 0.0 1.6 0.00 0.53 0.53 96 1013.0
20260903161605 17 0 0.0 1.6 0.00 0.53 0.53 96 1013.0
20260903161045 16 0 0.0 1.6 0.00 0.53 0.53 96 1013.0
20260903160548 16 343 0.0 1.6 0.00 0.53 0.53 96 1013.1
20260903160104 16 0 0.0 1.6 0.00 0.53 0.53 97 1013.3
20260903155545 16 348 0.0 1.6 0.00 0.53 0.53 97 1013.3
20260903155044 16 0 0.0 1.6 0.00 0.53 0.53 97 1013.3
20260903154608 16 0 0.0 1.6 0.00 0.53 0.53 97 1013.5
20260903154045 16 0 0.0 1.6 0.00 0.53 0.53 97 1013.6
20260903153544 16 0 0.0 4.8 0.00 0.53 0.53 97 1013.4
20260903153110 15 360 0.0 4.8 0.00 0.53 0.53 97 1013.5
20260903152548 16 246 0.0 3.2 0.00 0.53 0.53 97 1013.6
20260903152044 15 245 0.0 3.2 0.00 0.53 0.53 97 1013.6
20260903151603 15 269 0.0 3.2 0.00 0.53 0.53 97 1013.8
20260903151047 15 0 0.0 1.6 0.00 0.53 0.53 97 1013.8
20260903150545 15 0 0.0 3.2 0.00 0.53 0.53 97 1013.9
20260903150119 15 0 0.0 3.2 0.00 0.53 0.53 97 1014.0
20260903145545 15 248 0.0 3.2 0.00 0.53 0.53 98 1014.0
20260903145045 15 0 0.0 1.6 0.00 0.53 0.53 98 1013.8
20260903144602 15 0 0.0 1.6 0.00 0.53 0.53 98 1014.0
20260903144045 15 0 0.0 3.2 0.00 0.53 0.53 98 1014.1
20260903143544 15 0 0.0 3.2 0.00 0.53 0.53 98 1014.3
20260903143101 15 244 0.0 1.6 0.00 0.53 0.53 98 1014.3
20260903142545 15 236 0.0 1.6 0.00 0.53 0.53 98 1014.2
20260903142045 15 0 0.0 1.6 0.00 0.53 0.53 98 1014.0
20260903141605 14 0 0.0 1.6 0.00 0.53 0.53 98 1014.1
20260903141045 14 0 0.0 1.6 0.00 0.53 0.53 98 1014.3
20260903140544 15 0 0.0 0.0 0.00 0.53 0.53 98 1014.3
20260903140107 14 0 0.0 0.0 0.00 0.53 0.53 98 1014.3
20260903135546 14 0 0.0 0.0 0.00 0.53 0.53 98 1014.3
20260903135048 14 0 0.0 0.0 0.00 0.53 0.53 98 1014.3
20260903134600 14 0 0.0 1.6 0.00 0.53 0.53 98 1014.2
20260903134049 14 0 0.0 1.6 0.00 0.53 0.53 98 1014.2
20260903133545 14 0 0.0 1.6 0.00 0.53 0.53 98 1014.1
20260903133107 14 0 0.0 1.6 0.00 0.53 0.53 98 1014.1
20260903132544 14 0 0.0 0.0 0.00 0.53 0.53 98 1014.1
20260903132044 14 0 0.0 0.0 0.00 0.53 0.53 98 1014.0
20260903131559 14 0 0.0 0.0 0.00 0.53 0.53 98 1014.2
20260903131046 14 0 0.0 1.6 0.00 0.53 0.53 98 1014.1
20260903130547 14 0 0.0 1.6 0.00 0.53 0.53 98 1014.1
20260903130059 14 0 0.0 1.6 0.00 0.53 0.53 98 1014.1
20260903125545 14 0 0.0 1.6 0.00 0.53 0.53 98 1014.1
20260903125045 14 288 0.0 0.0 0.00 0.53 0.53 98 1014.1
20260903124606 14 0 0.0 0.0 0.00 0.53 0.53 98 1014.0
20260903124045 14 0 0.0 1.6 0.03 0.53 0.53 98 1014.1
20260903123546 14 0 0.0 1.6 0.03 0.53 0.53 98 1014.2
20260903123058 13 0 0.0 3.2 0.03 0.53 0.53 98 1014.1
20260903122547 14 0 0.0 3.2 0.03 0.53 0.53 98 1014.2
20260903122046 14 0 0.0 1.6 0.03 0.53 0.53 98 1014.2
20260903121555 13 0 0.0 1.6 0.03 0.53 0.53 98 1014.2
20260903121045 13 0 0.0 0.0 0.03 0.53 0.53 98 1014.2
20260903120548 13 0 0.0 1.6 0.03 0.53 0.53 98 1014.2
20260903120055 13 0 0.0 1.6 0.03 0.53 0.53 98 1014.2
20260903115545 13 0 0.0 0.0 0.03 0.53 0.53 98 1014.2
20260903115046 13 0 0.0 0.0 0.03 0.53 0.53 98 1014.1
20260903114617 13 0 0.0 0.0 0.03 0.53 0.53 98 1014.2
20260903114042 13 0 0.0 0.0 0.00 0.51 0.51 98 1014.3
20260903113546 13 0 0.0 0.0 0.00 0.51 0.51 98 1014.2
20260903113100 13 0 0.0 1.6 0.00 0.51 0.51 98 1014.2
20260903112545 13 0 0.0 1.6 0.00 0.51 0.51 98 1014.2
20260903112043 13 0 0.0 1.6 0.00 0.51 0.51 98 1014.0
20260903111614 13 0 0.0 1.6 0.00 0.51 0.51 98 1014.1
20260903111045 13 0 0.0 1.6 0.00 0.51 0.51 98 1014.1
20260903110545 13 0 0.0 1.6 0.00 0.51 0.51 98 1014.2
20260903110059 13 0 0.0 1.6 0.00 0.51 0.51 98 1014.1
20260903105548 13 0 0.0 0.0 0.00 0.51 0.51 98 1014.1
20260903105044 13 0 0.0 1.6 0.00 0.51 0.51 98 1014.1
20260903104605 13 0 0.0 1.6 0.00 0.51 0.51 98 1014.1
20260903104042 13 0 0.0 4.8 0.00 0.51 0.51 98 1014.1
20260903103545 13 0 0.0 4.8 0.00 0.51 0.51 98 1014.1
20260903103110 13 0 0.0 4.8 0.00 0.51 0.51 98 1014.1
20260903102545 13 310 0.0 1.6 0.00 0.51 0.51 98 1014.0
20260903102046 13 0 0.0 1.6 0.00 0.51 0.51 98 1014.0
20260903101600 13 307 0.0 3.2 0.00 0.51 0.51 98 1014.0
20260903101044 13 0 0.0 3.2 0.00 0.51 0.51 98 1013.8
20260903100546 13 0 0.0 1.6 0.00 0.51 0.51 98 1013.8
20260903095542 13 295 0.0 3.2 0.00 0.51 0.51 98 1013.8
20260903095046 13 0 0.0 3.2 0.00 0.51 0.51 98 1013.8
20260903094603 13 163 0.0 3.2 0.00 0.51 0.51 98 1013.7
20260903094045 13 0 0.0 1.6 0.00 0.51 0.51 98 1013.7
20260903093545 13 0 0.0 4.8 0.00 0.51 0.51 97 1013.8
20260903093125 13 349 0.0 4.8 0.00 0.51 0.51 97 1013.7
20260903092545 13 0 0.0 3.2 0.00 0.51 0.51 97 1013.8
20260903092042 13 0 0.0 3.2 0.00 0.51 0.51 97 1013.8
20260903091559 13 0 0.0 1.6 0.00 0.51 0.51 97 1013.9
20260903091046 13 324 0.0 1.6 0.00 0.51 0.51 97 1014.0
20260903090544 13 324 0.0 1.6 0.00 0.51 0.51 97 1014.0
20260903090055 13 0 0.0 1.6 0.03 0.51 0.51 97 1014.1
20260903085542 13 324 0.0 1.6 0.03 0.51 0.51 97 1014.0
20260903085043 13 324 0.0 1.6 0.05 0.51 0.51 97 1013.9
20260903084600 13 0 0.0 0.0 0.05 0.51 0.51 97 1014.0
20260903084045 13 0 0.0 1.6 0.05 0.51 0.51 97 1014.0
20260903083543 13 0 0.0 1.6 0.08 0.51 0.51 97 1014.0
20260903083101 13 325 0.0 1.6 0.08 0.51 0.51 97 1014.0
20260903082545 13 324 0.0 1.6 0.08 0.51 0.51 97 1014.1
20260903082045 13 0 0.0 1.6 0.08 0.51 0.51 97 1014.3
20260903081556 13 304 0.0 3.2 0.10 0.51 0.51 97 1014.4
20260903081044 13 0 0.0 3.2 0.10 0.51 0.51 97 1014.4
20260903080545 13 330 0.0 3.2 0.10 0.51 0.51 97 1014.2
20260903080058 13 297 0.0 3.2 0.08 0.48 0.48 97 1014.2
20260903075548 13 290 0.0 3.2 0.08 0.48 0.48 97 1014.3
20260903075048 13 305 0.0 3.2 0.05 0.46 0.46 97 1014.2
20260903074557 13 335 0.0 1.6 0.05 0.46 0.46 97 1014.3
20260903074046 13 338 0.0 1.6 0.05 0.46 0.46 97 1014.3
20260903073545 13 0 0.0 4.8 0.03 0.43 0.43 97 1014.3
20260903073056 13 307 1.6 4.8 0.03 0.43 0.43 97 1014.5
20260903072545 13 327 0.0 3.2 0.03 0.43 0.43 97 1014.4
20260903072045 13 327 0.0 3.2 0.03 0.43 0.43 97 1014.3
20260903071632 13 359 0.0 3.2 0.00 0.41 0.41 97 1014.5
20260903071045 13 328 0.0 3.2 0.00 0.41 0.41 97 1014.7
20260903070548 13 328 0.0 4.8 0.00 0.41 0.41 97 1014.6
20260903070103 13 0 1.6 4.8 0.00 0.41 0.41 97 1014.7
20260903065547 13 0 0.0 3.2 0.00 0.41 0.41 97 1014.6